Вернуться в каталог

FENGYUN 1C DEB

АктивенSSO
NORAD 37589·DEBRIS·🇨🇳 China

Запущен May 10, 1999 с Taiyuan Satellite Launch Center

Loading…

Ближайшие Пролёты (ближайшие 24 часа)

TLE

УстаревшееSource: Space-Track

Эпоха: Aug 30, 2026, 23:07 UTC

1 37589U 99025EKH 26242.96342787  .00002823  00000-0  15194-2 0  9996
2 37589  99.0681 152.5604 0112554 252.6063 106.2774 14.10479981862649

Отслеживайте FENGYUN 1C DEB в реальном времени с AllMySat

Download on the App Store